Location: D�derode
(51.8092°N, 10.1065°E)
Time: 16:49:44
(UTC+00:00)

BREEZE-M DEB (TANK) - Pass Details

Date: 16 April 2021
Orbit: 315 x 13085 km, 49.6° (Epoch: 11 May)

Event Time Altitude Azimuth Distance (km) Brightness Sun altitude
Rises 02:39:54 0° 289° (WNW) 5,014 7.4 -14.6°
Reaches altitude 10° 02:44:56 10° 278° (W) 2,740 5.9 -14.0°
Enters shadow 02:47:47 19° 254° (WSW) 1,552 4.5 -13.6°
Exits shadow 02:49:19 22° 221° (SW) 1,175 3.9 -13.4°
Drops below altitude 10° 02:51:24 10° 170° (S) 1,426 4.7 -13.2°
Sets 02:53:06 0° 151° (SSE) 2,090 5.7 -12.9°
